Regional Weather Roundup
Issued by NWS

Home | Current Version | Previous Version | Text Only | Print | Product List | Glossary Off
Versions: 1 2 3 4 5 6 7 8 9 10 11 12 13 14 15 16 17 18 19 20 21 22 23 24 25 26 27 28 29 30 31 32 33 34 35 36 37 38 39 40 41 42 43 44 45 46 47 48 49 50

000
ASUS43 KMPX 280610
RWRMN
WEATHER ROUNDUP FOR MINNESOTA
NATIONAL WEATHER SERVICE TWIN CITIES/CHANHASSEN MN
100 AM CDT FRI AUG 28 2015


NOTE: "FAIR" INDICATES FEW OR NO CLOUDS BELOW 12,000 FEET WITH NO
SIGNIFICANT WEATHER AND/OR OBSTRUCTIONS TO VISIBILITY. N/A MEANS
CURRENT SKY AND/OR WEATHER CONDITIONS ARE NOT AVAILABLE.

MNZ060>063-068>070-280700-
   Twin Cities Metro

CITY           SKY/WX    TMP DP  RH WIND       PRES   REMARKS
TWIN CITIES    CLOUDY    66  59  78 S7        30.01R
6HR MIN TEMP:  66; 6HR MAX TEMP:  73;

ST PAUL        FAIR      64  60  87 SE7       30.01S
CRYSTAL        FAIR      67  59  75 S8        29.99R
BLAINE         FAIR      66  61  82 S8        30.00S
LAKEVILLE      FAIR      63  61  94 S6        30.01S
EDEN PRAIRIE   FAIR      65  60  84 S6        30.00R
6HR MIN TEMP:  64; 6HR MAX TEMP:  71;

SOUTH ST PAUL  FAIR      64  59  82 SE3       30.01S
LAKE ELMO      FAIR      63  59  88 S5        30.03R
$$
MNZ001>005-007-008-013>017-022>024-027-028-280700-
   Northwest Minnesota

CITY           SKY/WX    TMP DP  RH WIND       PRES   REMARKS
BEMIDJI        MOCLDY    63  62  97 CALM      29.93S
HALLOCK        FAIR      59  57  94 S5        29.85F
ROSEAU         FAIR      61  54  77 S3        29.87F HAZE
WARROAD        FAIR      61  57  88 S3        29.88F
THIEF RVR FALL FAIR     N/A N/A N/A S6        29.89S
CROOKSTON      FAIR      66  64  94 S8        29.89S
FOSSTON        FAIR      61  61 100 S6        29.92S
DETROIT LAKES  FAIR      63  63 100 SE3       29.94F
MOORHEAD       FAIR      66  64  94 S9        29.90F
PARK RAPIDS    FAIR      65  62  90 S3        29.94S
MAHNOMEN       FAIR      65  64  95 S5        29.91F
$$
MNZ006-009>011-018-025>026-280700-
   North Central Minnesota

CITY           SKY/WX    TMP DP  RH WIND       PRES   REMARKS
BAUDETTE       FAIR      61  59  93 CALM      29.90S
FLAG ISLAND    FAIR      66  64  94 S3        29.87S FOG
INTL FALLS     FAIR      58  58 100 SE3       29.91F
6HR MIN TEMP:  57; 6HR MAX TEMP:  72;

WASKISH        MOCLDY    64  63  94 S5        29.92R
BIG FORK       FAIR      61  57  88 CALM      29.94F FOG
LONGVILLE      FAIR      59  57  94 CALM      29.94F
GRAND RAPIDS     N/A     61  57  88 S7        29.95F
CRANE LAKE     CLOUDY    54  54 100 S1        29.96S
ORR            FAIR      61  57  88 CALM      29.93S
COOK           FAIR      63  59  88 CALM      29.96S
WALKER         FAIR      63  61  95 S3        29.93F
$$
MNZ012-019>021-037-280700-
   Northeast Minnesota

CITY           SKY/WX    TMP DP  RH WIND       PRES   REMARKS
DULUTH         CLOUDY    61  54  77 S6        29.98F
6HR MIN TEMP:  57; 6HR MAX TEMP:  63;

ELY            FAIR      61  55  82 SW3       29.97F
HIBBING        FAIR      56  56 100 CALM      29.96F FOG
EVELETH        MOCLDY    63  59  88 CALM      29.98F
DULUTH HARBOR  CLOUDY    57  52  82 CALM      29.99F
TWO HARBORS    CLOUDY    61  55  82 CALM      29.97F
SILVER BAY     CLOUDY    57  55  94 CALM      29.97F
GRAND MARAIS     N/A     56  50  80 CALM      29.97F
G MARAIS ARPRT CLOUDY    54  48  82 CALM      30.01S
$$
MNZ029>031-032-039>041-046>048-054>057-064-280700-
   West Central Minnesota

CITY           SKY/WX    TMP DP  RH WIND       PRES   REMARKS
FERGUS FALLS   FAIR      64  64 100 S6        29.92F
WHEATON        FAIR      61  61 100 SE6       29.95R
MORRIS         MOCLDY    63  63 100 SE8       29.95R FOG
ALEXANDRIA     FOG       63  63 100 S8        29.97S VSB 1/4
ELBOW LAKE     FAIR      63  63  99 SE6       29.93S
WADENA         CLOUDY    63  63 100 SE3       29.95S
GLENWOOD       FOG       63  63 100 SE7       29.97R VSB 3/4
APPLETON       FAIR      64  63  94 SE8       29.95R
BENSON         FAIR      63  61  94 S8        29.96R
ORTONVILLE     FAIR      63  61  94 S5        29.94S
MADISON        FAIR      64  63  94 SE6       29.95S
WILLMAR        FAIR      63  63 100 SE6       30.00R
$$
MNZ033>034-036-042>043-049>051-058-059-280700-
   Central Minnesota

CITY           SKY/WX    TMP DP  RH WIND       PRES   REMARKS
ST CLOUD       FAIR      59  58  96 S6        29.99R
6HR MIN TEMP:  59; 6HR MAX TEMP:  71;

SAUK CENTRE    FAIR      60  60  99 SE5       29.97S
PAYNESVILLE    FAIR      63  60  93 E7        29.99R
AITKIN         MOCLDY    64  59  82 S6        29.95F
PINE RIVER     FAIR      61  61 100 S3        29.98F
BRAINERD       CLOUDY    65  62  90 S7        29.96F
STAPLES        CLOUDY    63  63 100 S5        29.95F
LONG PRAIRIE   CLOUDY    61  61 100 SE5       29.97S
LITTLE FALLS   FAIR      61  59  94 CALM      29.96F
LITCHFIELD     FAIR      64  63  94 CALM      30.00R
BUFFALO        FAIR      63  58  84 CALM      30.00R
MAPLE LAKE     FAIR      62  60  94 CALM      30.00S
$$
MNZ037-044-045-052-053-280700-
   East Central Minnesota

CITY           SKY/WX    TMP DP  RH WIND       PRES   REMARKS
PRINCETON      FAIR      63  59  88 S6        29.99S
MORA           FAIR      59  57  94 CALM      30.00S
CAMBRIDGE      FAIR      63  54  72 S5        29.98S
RUSH CITY      MOCLDY    61  57  88 S5        30.00S
MOOSE LAKE     CLOUDY    63  59  88 S3        29.97S
HINCKLEY       FAIR      57  57 100 CALM      29.99S
CLOQUET        MOCLDY    57  50  77 CALM      29.99S
MCGREGOR       FAIR      61  59  94 S3        29.97F
$$
MNZ071>073-080-081-089-090-097-098-280700-
   Southwest Minnesota

CITY           SKY/WX    TMP DP  RH WIND       PRES   REMARKS
MONTEVIDEO     FAIR      63  63 100 S8        29.98S
GRANITE FALLS  FAIR      62  61  97 CALM      29.99R
CANBY          FAIR      64  63  94 SE3       29.98R FOG
MARSHALL       FAIR      66  61  82 S5        29.99R
REDWOOD FALLS  FAIR      64  61  90 S7        29.98R
OLIVIA         FAIR      59  57  94 SE6       29.98R
PIPESTONE      LGT RAIN  64  63  94 SE9G18    29.98R
WINDOM         LGT RAIN  66  63  88 S14G23    29.99R
WORTHINGTON    CLOUDY    63  59  88 SE14G21   30.00S
JACKSON        RAIN      63  63 100 S12       30.03R
TRACY          FAIR      65  63  93 SW13      29.99R
SLAYTON        LGT RAIN  63  63 100 CALM      30.01R
$$
MNZ065>067-074>077-082>085-091>093-280700-
   South Central Minnesota

CITY           SKY/WX    TMP DP  RH WIND       PRES   REMARKS
MANKATO        FAIR      64  59  82 S10G17    30.01S
NEW ULM        FAIR      64  61  88 SE7       29.99R
ST JAMES       LGT RAIN  64  64 100 SE17G24   29.97S
FAIRMONT       CLOUDY    63  57  82 S12G18    30.03S
GLENCOE        FAIR      64  62  93 S3        30.00R
FARIBAULT      FAIR      64  61  88 S8        30.04R
OWATONNA       FAIR      64  59  82 S16       30.04R
WASECA         FAIR      63  59  88 MISG      30.05R
ALBERT LEA     LGT RAIN  63  63 100 S8        30.06R
$$
MNZ078>079-086>088-094>096-280700-
   Southeast Minnesota

CITY           SKY/WX    TMP DP  RH WIND       PRES   REMARKS
ROCHESTER      FAIR      63  59  87 S10       30.04F
6HR MIN TEMP:  62; 6HR MAX TEMP:  67;

RED WING       FAIR      66  59  77 SE3       30.01F
STANTON        FAIR      65  59  82 S3        30.00S
DODGE CENTER   FAIR      63  59  88 S13G18    30.03F
WINONA         FAIR      63  59  88 SE6       30.04F
AUSTIN         FAIR      64  61  88 CALM      30.05R
PRESTON        FAIR      62  57  85 S9        30.06F
$$
ABBREVIATIONS USED IN REMARKS
   TC - TEMPERATURES IN CELSIUS
  WCI - WIND CHILL INDEX
   HX - HEAT INDEX
  VSB - VISIBILITY
$$



USA.gov is the U.S. government's official web portal to all federal, state and local government web resources and services.